Location: Unspecified
(0.0000°N, 0.0000°E)
Time: 14:11:41
(UTC+00:00)

STARLINK-1276 - Visible Passes

Search period start: 15 December 2025 00:00
Search period end: 25 December 2025 00:00
Orbit: 546 x 548 km, 53.1° (Epoch: 14 December)

Date Brightness Start Highest point End Pass type
(mag) Time Alt. Az. Time Alt. Az. Time Alt. Az.
15 Dec 4.9 18:53:00 10° NW 18:56:55 44° WSW 19:00:52 10° SSE visible
16 Dec 7.2 05:13:02 10° SE 05:14:30 12° SE 05:15:57 10° ESE visible
16 Dec 5.9 18:47:03 10° WNW 18:50:36 28° SW 18:54:10 10° S visible
17 Dec 6.8 05:05:21 10° SSE 05:08:11 18° SE 05:11:00 10° E visible
17 Dec 6.7 18:41:22 10° W 18:44:16 18° SW 18:47:11 10° S visible
18 Dec 6.0 04:58:19 10° S 05:01:51 27° SE 05:05:22 10° ENE visible
18 Dec 7.2 18:36:19 10° WSW 18:37:57 12° SW 18:39:35 10° SSW visible
19 Dec 5.0 04:51:35 10° SSW 04:55:30 42° SE 04:59:24 10° NE visible
20 Dec 3.9 04:45:02 10° SSW 04:49:09 69° SE 04:53:14 10° NE visible
21 Dec 3.4 04:38:40 10° SW 04:42:46 73° WNW 04:46:52 10° NNE visible
22 Dec 3.9 04:36:41 44° NW 04:36:41 44° NW 04:40:20 10° NNE visible
